Theta_e
354 352 352 351 350 351 352 350 352 348 344 346 337 346 352 353 352 352 351 352 352 351 349 351 351 349 351 348 348 350 353 353 348 351 350 348 351 350 347 346 344 349 347
351 354 351 351 350 353 350 351 351 351 343 345 344 348 351 352 354 353 353 350 354 349 350 354 351 352 350 346 351 350 351 351 351 349 350 350 350 350 348 343 343 349 348
340 349 353 352 351 352 350 347 353 352 346 338 351 348 351 353 352 354 353 351 351 353 352 350 344 351 349 349 351 347 351 350 350 351 350 349 349 348 348 350 349 347 345
341 339 350 353 351 351 352 353 351 351 352 346 348 351 351 352 351 351 354 352 350 350 351 352 350 352 349 347 350 349 351 349 351 352 350 348 347 347 346 346 347 346 344
340 339 342 352 354 353 354 352 352 351 351 352 350 349 351 352 351 355 353 352 352 353 351 349 351 353 352 349 351 350 351 349 349 350 349 347 347 346 344 345 345 348 342
345 343 346 347 344 343 348 353 353 353 352 352 351 352 351 352 352 352 354 353 351 354 352 350 349 352 351 351 351 351 351 348 348 350 351 345 346 345 348 348 346 345 344
347 344 341 337 339 342 337 345 352 352 353 352 352 352 353 352 353 353 352 354 353 351 351 349 349 350 352 352 351 350 350 348 346 348 348 346 348 345 344 342 341 342 342
347 344 342 338 337 336 339 343 351 352 352 353 353 354 354 353 353 353 352 352 353 351 352 349 349 351 351 351 352 352 350 347 345 345 345 344 344 342 339 340 341 341 336
350 349 343 339 342 344 348 349 352 354 354 354 355 354 353 356 355 353 353 352 352 352 353 350 352 352 351 350 349 351 348 345 340 343 341 338 335 335 336 340 340 340 336
347 347 347 347 350 351 350 351 354 354 355 357 357 355 354 356 357 356 352 351 351 352 352 351 350 350 351 351 349 350 348 342 337 333 333 330 331 330 330 332 332 335 332
343 343 347 349 351 349 350 351 352 352 352 353 355 356 356 356 355 354 351 352 350 350 350 350 351 350 350 350 348 348 349 342 332 332 330 328 328 327 324 324 326 328 329
343 342 345 347 348 350 350 351 351 352 354 354 356 356 356 355 355 354 353 351 352 349 348 349 348 347 347 345 344 343 343 334 332 329 328 327 324 321 319 315 316 317 316
338 343 347 346 348 349 347 346 347 348 347 347 347 347 347 350 352 351 352 351 349 348 348 348 344 343 342 341 341 340 335 330 329 326 323 322 322 322 322 321 321 320 318
341 341 345 346 346 344 341 339 339 338 341 343 343 343 341 341 343 343 345 346 349 347 343 339 340 338 337 334 331 331 330 329 326 322 322 321 320 321 319 322 324 322 321
340 341 345 345 343 340 336 332 331 331 333 335 338 341 340 339 339 340 340 343 345 344 337 331 331 329 328 328 328 326 325 324 323 323 321 320 320 319 317 317 318 322 325
339 341 342 341 339 336 332 327 322 327 329 332 335 337 338 338 338 335 337 339 338 332 329 327 326 326 326 326 326 326 325 323 321 320 321 319 318 316 316 317 318 317 318
338 340 340 338 336 332 329 326 323 321 327 329 332 335 335 337 334 331 328 325 325 326 324 324 323 323 322 323 323 322 320 321 320 316 315 314 314 315 313 313 314 315 314
338 336 337 334 331 328 325 323 322 320 318 321 326 328 327 326 325 325 324 324 324 323 322 321 320 322 322 321 320 318 316 315 314 314 313 313 312 312 312 310 310 311 311
336 335 334 331 328 326 323 320 319 318 317 316 319 321 322 323 323 323 323 323 322 322 322 321 319 318 319 319 318 315 314 313 313 312 312 311 311 311 310 309 309 310 312
334 334 333 330 326 324 322 322 321 321 320 320 320 321 323 323 323 322 322 322 321 320 319 319 317 318 319 317 315 315 313 312 310 310 310 311 311 310 311 311 311 311 312
333 333 331 328 326 325 324 324 323 322 322 321 321 323 323 323 322 321 320 318 318 318 319 320 321 319 316 316 316 313 312 312 313 312 311 311 311 311 311 311 312 311 310
334 334 332 331 327 326 325 325 324 324 323 322 322 321 320 319 318 318 319 320 320 321 321 320 318 316 314 313 313 314 314 314 313 312 312 311 311 312 312 311 311 311 311
334 334 334 333 330 327 327 328 326 325 325 323 320 320 321 322 321 321 322 323 322 320 317 315 315 316 316 316 316 315 314 314 314 313 313 313 312 312 311 311 311 311 310
332 332 331 329 330 330 330 328 327 326 325 321 319 320 321 320 321 323 325 321 318 317 318 318 318 318 318 318 318 315 315 314 313 313 313 313 312 311 311 311 311 310 310
327 326 325 324 324 323 322 323 323 323 322 321 322 321 320 321 319 319 320 319 318 319 319 319 319 319 319 318 318 317 317 314 312 311 312 312 312 312 311 310 310 310 310
322 321 321 322 322 321 321 321 320 320 319 319 320 321 320 319 319 319 319 319 320 320 320 321 321 321 321 320 320 319 316 315 313 312 311 311 311 311 311 310 310 310 310
Wind_Speed
33 30 26 24 24 24 22 14 13 12 14 23 22 17 18 16 12 11 11 10 9 10 11 5 7 6 5 7 7 10 12 6 3 3 1 7 8 12 8 6 4 3 5
22 18 29 26 26 25 25 21 18 18 17 22 17 22 22 16 16 17 15 11 9 12 9 10 8 8 5 5 6 6 6 7 6 5 5 5 5 3 3 1 3 5 10
28 18 24 28 29 28 24 26 23 21 22 22 20 18 17 18 19 16 17 15 14 13 13 15 10 13 10 8 4 7 9 8 5 3 3 6 7 4 5 5 6 10 12
25 29 22 32 32 33 27 26 24 23 23 21 20 19 19 21 21 20 17 15 16 16 15 14 15 15 13 11 8 8 7 4 2 2 1 1 5 6 7 8 10 10 10
21 16 19 23 25 32 29 27 28 25 23 24 24 24 24 23 21 21 20 19 19 20 18 19 18 16 20 15 8 8 8 8 5 3 3 2 3 4 4 4 5 9 9
18 27 21 8 10 17 23 24 22 24 26 25 25 27 27 26 27 25 23 25 24 22 20 19 19 15 11 12 12 10 8 8 7 5 5 5 4 4 5 1 1 8 5
28 24 15 11 30 29 33 23 26 26 27 29 30 29 30 30 28 27 26 26 28 25 24 20 18 15 13 10 8 10 8 8 8 8 8 6 5 3 3 3 4 6 10
7 11 14 15 18 35 32 35 34 29 29 29 32 31 31 32 31 30 29 30 25 25 29 22 19 18 16 14 11 8 6 4 5 7 7 5 4 4 4 5 5 12 15
3 8 16 25 23 23 27 29 26 24 24 27 28 30 30 34 33 31 31 29 29 24 26 22 21 18 17 16 15 13 10 7 6 6 5 4 3 2 3 8 9 14 6
6 6 7 9 12 17 17 15 15 17 19 23 27 27 27 27 28 30 29 31 30 28 24 23 23 22 20 18 15 18 17 14 12 11 9 8 8 8 8 10 11 14 10
6 11 11 11 10 13 13 13 12 12 14 19 22 24 25 27 30 29 27 32 31 31 29 23 20 20 19 14 11 14 20 18 16 13 14 13 12 13 16 12 11 11 13
5 10 13 13 11 9 8 6 8 7 11 14 13 17 20 23 26 28 28 29 30 30 25 21 18 14 12 10 10 9 10 19 18 16 18 18 19 21 20 12 13 16 18
7 10 11 10 7 7 7 6 4 2 5 7 7 12 13 14 19 21 25 28 23 19 23 21 19 14 13 12 12 14 20 21 19 19 15 19 22 19 15 11 10 11 15
7 9 10 7 9 9 6 6 6 5 6 3 3 4 5 6 7 9 14 18 17 14 22 23 20 20 20 22 21 21 23 24 28 29 21 18 15 10 13 8 7 8 10
7 10 6 10 8 7 5 4 5 7 6 5 4 4 5 6 6 9 15 18 22 27 29 31 30 30 29 28 30 32 31 29 23 21 20 16 14 12 8 9 9 8 9
6 8 7 6 6 6 5 3 5 5 5 7 9 8 6 6 7 10 17 20 23 34 30 27 23 25 28 31 30 24 21 20 19 15 14 16 16 13 12 15 12 19 21
7 5 6 7 11 9 5 2 2 5 2 2 5 7 7 5 7 9 12 26 22 23 24 22 20 24 26 30 27 23 18 13 15 17 15 15 15 16 14 15 15 16 14
6 7 6 10 10 7 7 5 5 6 11 12 9 9 9 11 17 25 31 31 28 27 28 25 20 25 26 25 18 17 18 19 17 16 16 16 14 13 11 8 9 12 10
6 5 11 12 11 11 11 12 14 18 19 23 25 26 26 29 29 27 26 27 28 30 31 28 24 19 15 12 13 17 18 18 15 12 13 14 11 13 11 10 11 10 11
5 6 14 16 18 17 19 18 17 17 18 18 20 24 25 25 24 25 27 29 29 28 29 28 22 18 15 17 16 16 16 15 16 16 14 11 8 8 9 8 6 4 8
6 9 17 19 19 20 22 19 18 17 17 16 19 28 25 25 24 24 25 25 27 27 27 19 14 19 19 18 17 15 16 15 13 13 11 10 9 10 8 6 3 8 6
14 14 21 22 23 24 22 22 19 19 17 20 20 22 23 25 25 24 23 22 19 12 13 19 20 17 19 20 20 18 15 16 15 14 12 11 10 7 6 4 4 7 6
15 16 21 19 27 28 25 22 20 20 20 19 21 24 20 18 15 13 17 14 14 21 19 18 20 19 18 16 15 17 18 16 14 12 12 8 8 8 5 3 9 14 12
18 20 23 20 26 26 24 22 20 19 19 22 23 24 22 19 11 16 24 24 23 20 19 20 19 18 17 15 14 19 16 17 15 13 11 7 10 7 4 2 9 9 9
16 17 19 22 21 25 18 15 22 15 8 16 21 20 14 13 21 22 25 25 23 21 20 20 21 22 20 18 15 13 19 23 16 16 13 11 8 5 4 4 6 11 11
24 24 24 24 24 22 21 22 13 11 16 14 20 23 22 21 21 20 20 19 21 20 16 15 15 12 17 15 15 17 24 20 19 18 15 10 10 6 7 6 1 4 16
Wind_Direction
198 201 204 213 221 222 229 224 210 201 209 219 222 215 220 222 221 217 237 243 271 254 258 259 277 280 294 325 344 9 20 19 39 73 41 143 144 166 144 206 189 95 210
222 219 204 215 218 224 233 230 217 216 206 206 207 213 212 215 224 223 232 236 263 248 248 265 270 274 256 289 292 324 349 18 24 12 30 91 149 144 127 235 219 206 191
224 230 223 209 219 221 225 227 229 223 203 199 209 217 208 218 219 225 228 239 236 241 252 254 249 273 249 267 268 313 325 344 359 356 18 106 131 152 171 164 189 177 188
208 236 228 215 219 223 216 223 227 234 237 225 225 227 231 239 241 236 239 239 244 242 246 257 261 261 259 270 255 270 282 290 327 351 304 221 169 181 191 167 164 182 179
224 275 268 233 217 217 221 220 229 222 231 236 229 234 234 235 235 236 242 245 247 246 250 248 255 270 263 271 255 249 238 243 240 256 265 217 179 183 218 204 193 175 163
210 240 253 234 275 296 271 232 229 227 229 227 231 234 235 234 236 234 239 245 242 241 246 252 245 255 248 265 264 256 258 252 239 228 209 213 229 232 238 171 293 153 144
165 169 202 236 250 262 280 271 243 235 235 234 233 233 236 239 239 239 237 247 245 239 241 251 248 244 254 247 263 275 267 255 244 223 210 208 205 192 195 150 103 106 126
147 179 193 182 218 250 268 263 248 239 240 244 242 240 239 243 242 242 243 246 256 252 235 241 243 244 249 254 258 248 229 231 201 201 202 198 197 201 201 149 109 132 116
238 206 205 200 218 247 251 246 239 244 249 250 246 246 245 245 248 248 245 246 249 247 233 233 232 238 244 251 256 215 194 176 159 170 162 161 148 148 190 176 153 154 120
329 327 294 261 242 240 248 257 256 251 250 254 253 255 254 256 258 257 250 247 242 238 234 232 236 239 244 249 249 207 191 185 167 149 136 126 114 101 92 124 127 123 130
303 302 307 305 270 263 256 255 266 270 262 255 255 259 262 259 258 261 258 250 245 240 239 235 232 239 236 230 213 204 205 186 167 158 138 122 108 100 86 56 86 108 121
303 303 299 302 283 269 247 253 266 266 256 258 263 265 266 267 264 263 258 254 247 243 241 227 210 200 193 198 197 190 176 176 159 147 139 121 108 103 91 91 90 95 90
316 317 300 291 261 238 249 256 249 286 287 299 297 285 282 274 266 261 254 247 240 243 220 197 183 180 182 170 167 165 168 149 138 124 118 114 116 115 111 106 113 109 99
311 308 295 253 216 241 265 277 281 277 264 348 282 281 270 246 234 220 199 190 207 199 174 162 164 160 157 147 142 139 138 136 130 125 125 121 119 121 118 153 172 156 133
308 318 270 213 200 229 271 299 284 266 263 256 274 248 253 245 217 197 181 178 179 181 163 151 146 141 135 129 126 127 129 130 133 137 135 136 139 145 131 125 117 150 172
301 312 204 202 213 222 235 252 333 326 273 249 237 231 263 255 252 218 200 186 173 163 148 138 135 137 134 131 131 134 135 136 138 140 143 141 138 120 106 94 98 113 112
287 268 237 232 187 175 167 231 287 17 13 189 199 214 223 231 212 186 162 136 135 135 116 118 118 125 128 131 133 131 130 142 144 129 124 116 113 116 108 102 101 115 115
266 268 255 175 163 153 147 138 135 120 94 86 108 130 133 140 145 142 139 136 116 113 105 100 103 122 124 128 128 127 128 128 129 126 119 116 119 116 105 97 109 105 97
262 256 175 164 152 143 130 119 116 110 104 107 111 113 118 122 124 123 125 117 119 120 124 122 121 119 120 126 146 144 138 132 131 131 126 119 120 126 117 99 103 116 97
240 218 186 162 143 129 123 117 115 111 113 115 114 118 125 126 120 121 121 122 122 125 127 123 127 140 162 165 156 149 138 131 129 129 125 115 123 134 127 132 118 112 101
225 192 169 150 145 142 136 133 130 128 129 134 139 140 138 136 136 135 133 133 135 138 143 149 168 170 161 160 162 156 151 142 140 136 131 117 118 122 124 122 110 143 109
219 199 180 170 159 152 153 149 149 149 156 154 157 154 147 143 144 143 147 153 158 163 162 158 160 166 165 163 157 154 153 155 154 146 133 144 139 137 140 145 159 169 156
206 199 190 183 164 165 167 171 168 167 164 163 168 170 165 165 171 187 187 188 172 161 162 158 154 159 165 170 181 177 171 167 159 161 168 169 178 178 154 90 154 138 135
191 177 160 158 160 164 168 173 181 164 178 175 182 190 197 209 232 187 186 170 167 165 164 168 172 172 176 184 196 189 188 168 154 144 152 163 146 128 99 127 153 152 148
158 143 137 134 138 137 134 143 162 173 181 179 202 203 200 198 153 147 157 168 172 175 184 190 194 199 194 189 193 198 180 175 174 170 165 162 160 174 177 102 113 168 150
122 114 115 115 111 108 113 116 131 139 131 115 110 139 137 144 155 160 166 172 178 183 183 167 137 142 192 211 216 212 193 184 169 170 172 176 150 147 181 150 100 156 178